Voltar ao catálogo

OPS 7684 DEB

AtivoPO
NORAD 3617·DEBRIS·🇺🇸 United States

Lançado Dec 12, 1968 de Vandenberg Space Force Base

Loading…

Próximas Passagens (próximas 24 horas)

TLE

AtualizadoSource: Space-Track

Época: Sep 14, 2026, 05:31 UTC

1 03617U 68112C   26257.23020721  .00000067  00000-0  33486-3 0  9994
2 03617  80.1849 333.9045 0044074 340.0629  47.1805 12.63544816662266

Acompanhe OPS 7684 DEB em tempo real com AllMySat

Download on the App Store